Location: Chillicothe
(39.7950°N, 93.5520°W)
Time: 01:06:27
(UTC-06:00)

Explorer 11/Cluster Stage 4 - Pass Details

Date: 26 October 2019
Orbit: 467 x 1259 km, 28.8° (Epoch: 16 November)

Event Time Altitude Azimuth Distance (km) Brightness Sun altitude
Rises 07:36:39 0° 226° (SW) 2,988 9.3 -0.7°
Reaches altitude 10° 07:40:17 10° 200° (SSW) 1,911 8.6 -0.1°
Maximum altitude 07:42:24 13° 171° (S) 1,619 8.6 0.3°
Drops below altitude 10° 07:44:23 10° 141° (SE) 1,756 9.4 0.7°
Sets 07:47:26 0° 113° (ESE) 2,553 12.3 1.3°
